Starlink 31152

operational
NORAD ID: 58734 Int'l Des: 2024-005 Owner: SPXS Country: US Constellation: starlink
LEOCIRCULAR

关于 Starlink 31152

正在加载描述...

实时位置

正在加载3D地球...

即将过境

高度历史

Altitude vs Time

uPlot chart will show altitude changes over time

两行轨道根数

1 58734U 24005G 25303.76859500 .00000310 00000-0 38047-4 0 9991
2 58734 43.0037 207.9579 0001221 265.0382 95.0321 15.02531871100876
Epoch: Oct 30, 2025 • Age: 23 hours

当前状态

高度 563.3 km
速度 7.58 km/s
星下点 -20.74°S, 100.45°E
发射日期 Jan 7, 2024
运行时间 1.8 years
类型 internet

技术详情

分类 Payload
质量 730.00 kg
干质量 700.00 kg
总质量 730.00 kg
长度 0.30 m
直径 4.10 m
跨度 29.00 m
形状 Box + pan
制造商 SPXS
平台类型 Starlink V2M
阶段状态 In Orbit
所有者/国家 SPXS/US

大型星座

Loading constellations...